Powrót do katalogu

SL-14 DEB

AktywnyPO
NORAD 47085·DEBRIS·🇷🇺 Russia

Wystrzelony Aug 15, 1991 z Plesetsk Cosmodrome

Loading…

Następne Przeloty (najbliższe 24 godziny)

TLE

ŚwieżeSource: Space-Track

Epoka: Sep 14, 2026, 02:19 UTC

1 47085U 91056DK  26257.09674046 -.00000071  00000-0 -16318-3 0  9995
2 47085  82.5610  28.3282 0082797  33.7523 326.8842 13.35166584285593

Śledź SL-14 DEB w czasie rzeczywistym z AllMySat

Download on the App Store